User: anonymous
Location: Unspecified
(0.0000°N, 0.0000°E)
Time: 02:33:04
(UTC+02:00)
Language:

Ariane H10 - Orbit

View from above orbital plane
View from above orbital plane
View from above satellite
View from above satellite

Ground track
Ground track

The orbit data is extracted from the following two-line orbital elements,

1 21727U 91067B   14291.31159545 -.00000101  00000-0 -19607-3 0  3109
2 21727 004.6020 010.0443 7185799 080.6393 353.3606 02.31408787155388
Epoch (UTC): 18 October 2014 07:28:41
Eccentricity: 0.7185799
inclination: 4.6020°
perigee height: 416 km
apogee height: 35115 km
right ascension of ascending node: 10.0443°
argument of perigee: 80.6393°
revolutions per day: 2.31408787
mean anomaly at epoch: 353.3606°
orbit number at epoch: 15538

The dashed part of the orbit path shows where the satellite is in the earth's shadow,  

DLR